• In Kazakhstan
  • List of Countries
  • For 7 days
  • Water Temperature
  • Satellite Maps
  • Weather Map
  • News
  • Weather Widgets
  • user-avatar
    Login

    Hourly Weather Sucha

    Today, 19 April, Friday

    Time Temperature Precipitation Wind Pressure Humidity
    00:00 +11°C° 0 mm 1 mps 755 mmHg 64%
    01:00 +10°C° 0 mm 1 mps 755 mmHg 62%
    02:00 +10°C° 0 mm 1 mps 755 mmHg 63%
    03:00 +9°C° 0 mm 1 mps 755 mmHg 64%
    04:00 +9°C° 0 mm 1 mps 755 mmHg 65%
    05:00 +10°C° 0 mm 1 mps 756 mmHg 62%
    06:00 +12°C° 0 mm 1 mps 756 mmHg 59%
    07:00 +13°C° 0 mm 1 mps 756 mmHg 56%
    08:00 +15°C° 0 mm 1 mps 756 mmHg 50%
    09:00 +17°C° 0 mm 2 mps 756 mmHg 45%
    10:00 +19°C° 0 mm 2 mps 756 mmHg 39%
    11:00 +20°C° 0 mm 3 mps 756 mmHg 36%
    12:00 +21°C° 0 mm 3 mps 756 mmHg 33%
    13:00 +21°C° 0 mm 4 mps 755 mmHg 31%
    14:00 +21°C° 0 mm 4 mps 755 mmHg 32%
    15:00 +21°C° 0 mm 4 mps 755 mmHg 32%
    16:00 +21°C° 0 mm 4 mps 755 mmHg 33%
    17:00 +19°C° 0 mm 3 mps 755 mmHg 39%
    18:00 +17°C° 0 mm 3 mps 755 mmHg 45%
    19:00 +15°C° 0 mm 2 mps 755 mmHg 50%
    20:00 +14°C° 0 mm 2 mps 755 mmHg 52%
    21:00 +13°C° 0 mm 2 mps 755 mmHg 54%
    22:00 +12°C° 0 mm 2 mps 756 mmHg 57%
    23:00 +11°C° 0 mm 1 mps 756 mmHg 58%

    Tomorrow, 20 April, Saturday

    Time Temperature Precipitation Wind Pressure Humidity
    00:00 +11°C° 0 mm 1 mps 756 mmHg 59%
    01:00 +9°C° 0 mm 0 mps 756 mmHg 60%
    02:00 +10°C° 0 mm 1 mps 756 mmHg 62%
    03:00 +9°C° 0 mm 1 mps 755 mmHg 64%
    04:00 +9°C° 0 mm 1 mps 755 mmHg 66%
    05:00 +10°C° 0 mm 1 mps 755 mmHg 63%
    06:00 +11°C° 0 mm 1 mps 755 mmHg 61%
    07:00 +12°C° 0 mm 1 mps 755 mmHg 58%
    08:00 +14°C° 0 mm 2 mps 755 mmHg 53%
    09:00 +16°C° 0 mm 2 mps 755 mmHg 48%
    10:00 +18°C° 0 mm 2 mps 755 mmHg 42%
    11:00 +19°C° 0 mm 3 mps 754 mmHg 39%
    12:00 +19°C° 0 mm 3 mps 754 mmHg 35%
    13:00 +20°C° 0 mm 4 mps 754 mmHg 32%
    14:00 +20°C° 0 mm 4 mps 753 mmHg 32%
    15:00 +19°C° 0 mm 4 mps 753 mmHg 31%
    16:00 +19°C° 0 mm 4 mps 752 mmHg 31%
    17:00 +17°C° 0 mm 3 mps 752 mmHg 34%
    18:00 +14°C° 0 mm 3 mps 752 mmHg 38%
    19:00 +13°C° 0 mm 2 mps 752 mmHg 42%
    20:00 +12°C° 0 mm 2 mps 752 mmHg 45%
    21:00 +12°C° 0 mm 2 mps 752 mmHg 49%
    22:00 +11°C° 0 mm 1 mps 752 mmHg 52%
    23:00 +9°C° 0 mm 2 mps 752 mmHg 57%

    Day after tomorrow, 21 April, Sunday

    Time Temperature Precipitation Wind Pressure Humidity
    00:00 +9°C° 0 mm 2 mps 752 mmHg 62%
    01:00 +8°C° 0 mm 2 mps 752 mmHg 67%
    02:00 +7°C° 0 mm 2 mps 751 mmHg 70%
    03:00 +7°C° 0 mm 2 mps 751 mmHg 73%
    04:00 +6°C° 0 mm 2 mps 751 mmHg 77%
    05:00 +7°C° 0 mm 2 mps 751 mmHg 73%
    06:00 +8°C° 0 mm 2 mps 751 mmHg 70%
    07:00 +9°C° 0 mm 2 mps 751 mmHg 66%
    08:00 +12°C° 0 mm 2 mps 751 mmHg 59%
    09:00 +14°C° 0 mm 2 mps 750 mmHg 51%
    10:00 +16°C° 0 mm 3 mps 750 mmHg 43%
    11:00 +17°C° 0 mm 3 mps 750 mmHg 40%
    12:00 +17°C° 0 mm 3 mps 749 mmHg 37%
    13:00 +18°C° 0 mm 3 mps 749 mmHg 33%
    14:00 +18°C° 0 mm 3 mps 749 mmHg 34%
    15:00 +18°C° 0 mm 3 mps 748 mmHg 34%
    16:00 +18°C° 0 mm 3 mps 748 mmHg 34%
    17:00 +16°C° 0 mm 3 mps 747 mmHg 39%
    18:00 +15°C° 0 mm 2 mps 747 mmHg 44%
    19:00 +13°C° 0 mm 2 mps 747 mmHg 49%
    20:00 +13°C° 0 mm 2 mps 747 mmHg 50%
    21:00 +12°C° 0 mm 1 mps 747 mmHg 51%
    22:00 +12°C° 0 mm 1 mps 747 mmHg 52%
    23:00 +10°C° 0.1 mm 2 mps 747 mmHg 59%

    22 April, Monday

    Time Temperature Precipitation Wind Pressure Humidity
    00:00 +9°C° 0.1 mm 2 mps 747 mmHg 66%
    01:00 +8°C° 0.1 mm 2 mps 746 mmHg 73%
    02:00 +8°C° 0.5 mm 2 mps 746 mmHg 79%
    03:00 +8°C° 0.5 mm 1 mps 746 mmHg 85%
    04:00 +8°C° 0.5 mm 1 mps 746 mmHg 91%
    05:00 +8°C° 0.2 mm 1 mps 746 mmHg 90%
    06:00 +8°C° 0.2 mm 2 mps 746 mmHg 88%
    07:00 +8°C° 0.2 mm 2 mps 746 mmHg 87%
    08:00 +10°C° 0.1 mm 2 mps 746 mmHg 79%
    09:00 +12°C° 0.1 mm 2 mps 746 mmHg 72%
    10:00 +13°C° 0.1 mm 2 mps 746 mmHg 64%
    11:00 +14°C° 0 mm 3 mps 746 mmHg 55%
    12:00 +17°C° 0 mm 4 mps 746 mmHg 45%
    13:00 +19°C° 0 mm 5 mps 745 mmHg 36%
    14:00 +17°C° 0.1 mm 5 mps 745 mmHg 41%
    15:00 +17°C° 0.1 mm 4 mps 745 mmHg 46%
    16:00 +15°C° 0.1 mm 4 mps 744 mmHg 51%
    17:00 +14°C° 0.2 mm 4 mps 744 mmHg 57%
    18:00 +13°C° 0.2 mm 3 mps 744 mmHg 62%
    19:00 +12°C° 0.2 mm 3 mps 744 mmHg 68%
    20:00 +12°C° 0 mm 3 mps 744 mmHg 69%
    21:00 +11°C° 0 mm 4 mps 744 mmHg 69%
    22:00 +10°C° 0 mm 5 mps 744 mmHg 70%
    23:00 +10°C° 0 mm 5 mps 744 mmHg 70%

    23 April, Tuesday

    Time Temperature Precipitation Wind Pressure Humidity
    00:00 +10°C° 0 mm 5 mps 743 mmHg 71%
    01:00 +10°C° 0 mm 5 mps 743 mmHg 72%
    02:00 +9°C° 0 mm 5 mps 743 mmHg 73%
    03:00 +9°C° 0 mm 5 mps 743 mmHg 74%
    04:00 +9°C° 0 mm 5 mps 743 mmHg 75%
    05:00 +9°C° 0.1 mm 5 mps 743 mmHg 74%
    06:00 +10°C° 0.1 mm 5 mps 743 mmHg 72%
    07:00 +11°C° 0.1 mm 6 mps 743 mmHg 71%
    08:00 +11°C° 0.4 mm 6 mps 743 mmHg 70%
    09:00 +11°C° 0.4 mm 6 mps 743 mmHg 70%
    10:00 +11°C° 0.4 mm 6 mps 743 mmHg 70%
    11:00 +13°C° 0 mm 6 mps 743 mmHg 66%
    12:00 +14°C° 0 mm 7 mps 743 mmHg 62%
    13:00 +15°C° 0 mm 7 mps 743 mmHg 58%
    14:00 +15°C° 0.1 mm 7 mps 742 mmHg 60%
    15:00 +14°C° 0.1 mm 7 mps 742 mmHg 62%
    16:00 +14°C° 0.1 mm 7 mps 742 mmHg 64%
    17:00 +13°C° 0 mm 6 mps 742 mmHg 66%
    18:00 +13°C° 0 mm 5 mps 742 mmHg 67%
    19:00 +12°C° 0 mm 5 mps 742 mmHg 69%
    20:00 +12°C° 0 mm 5 mps 742 mmHg 70%
    21:00 +12°C° 0 mm 5 mps 742 mmHg 71%
    22:00 +10°C° 0 mm 5 mps 742 mmHg 72%
    23:00 +11°C° 0 mm 4 mps 742 mmHg 75%

    24 April, Wednesday

    Time Temperature Precipitation Wind Pressure Humidity
    00:00 +10°C° 0 mm 4 mps 742 mmHg 78%
    01:00 +10°C° 0 mm 4 mps 742 mmHg 81%
    02:00 +10°C° 0 mm 4 mps 742 mmHg 81%
    03:00 +10°C° 0 mm 4 mps 742 mmHg 82%
    04:00 +8°C° 0 mm 4 mps 742 mmHg 82%
    05:00 +10°C° 0 mm 4 mps 743 mmHg 78%
    06:00 +11°C° 0 mm 4 mps 743 mmHg 75%
    07:00 +13°C° 0 mm 5 mps 743 mmHg 71%
    08:00 +14°C° 0 mm 5 mps 743 mmHg 67%
    09:00 +16°C° 0 mm 5 mps 744 mmHg 64%
    10:00 +19°C° 0 mm 5 mps 744 mmHg 60%
    11:00 +19°C° 0 mm 5 mps 744 mmHg 61%
    12:00 +19°C° 0 mm 4 mps 744 mmHg 62%
    13:00 +20°C° 0 mm 4 mps 744 mmHg 62%
    14:00 +20°C° 0.1 mm 4 mps 744 mmHg 61%
    15:00 +20°C° 0.1 mm 5 mps 744 mmHg 60%
    16:00 +20°C° 0.1 mm 5 mps 745 mmHg 59%
    17:00 +19°C° 0 mm 4 mps 745 mmHg 64%
    18:00 +18°C° 0 mm 3 mps 745 mmHg 69%
    19:00 +17°C° 0 mm 2 mps 745 mmHg 73%
    20:00 +17°C° 0 mm 3 mps 746 mmHg 72%
    21:00 +17°C° 0 mm 3 mps 746 mmHg 71%
    22:00 +17°C° 0 mm 3 mps 746 mmHg 70%
    23:00 +16°C° 0 mm 3 mps 746 mmHg 72%
    Show more